TimeCDT,TemperatureF,Dew PointF,Humidity,Sea Level PressureIn,VisibilityMPH,Wind Direction,Wind SpeedMPH,Gust SpeedMPH,PrecipitationIn,Events,Conditions,WindDirDegrees,DateUTC
12:58 AM,68.4,64.8,88,29.88,10.0,South,6.9,-,N/A,,Clear,170,2013-06-10 05:58:00
1:58 AM,69.6,64.6,84,29.87,10.0,South,8.1,-,N/A,,Clear,170,2013-06-10 06:58:00
2:58 AM,69.3,64.2,84,29.87,10.0,SSE,4.6,-,N/A,,Clear,150,2013-06-10 07:58:00
3:58 AM,68.4,64.0,86,29.88,10.0,Calm,Calm,-,N/A,,Clear,0,2013-06-10 08:58:00
4:58 AM,66.6,63.9,91,29.88,10.0,SE,3.5,-,N/A,,Clear,140,2013-06-10 09:58:00
5:58 AM,64.9,64.9,100,29.89,10.0,SE,3.5,-,N/A,,Clear,130,2013-06-10 10:58:00
6:58 AM,64.9,64.9,100,29.90,10.0,SE,3.5,-,N/A,,Clear,130,2013-06-10 11:58:00
7:58 AM,70.9,67.1,88,29.91,10.0,South,5.8,-,N/A,,Clear,190,2013-06-10 12:58:00
8:58 AM,78.6,66.0,65,29.92,10.0,SSW,10.4,-,N/A,,Clear,200,2013-06-10 13:58:00
9:58 AM,85.5,66.0,52,29.92,10.0,SSW,15.0,21.9,N/A,,Clear,210,2013-06-10 14:58:00
10:58 AM,90.1,64.9,43,29.92,10.0,SSW,17.3,21.9,N/A,,Clear,210,2013-06-10 15:58:00
11:58 AM,93.4,62.8,36,29.89,10.0,SW,18.4,-,N/A,,Clear,220,2013-06-10 16:58:00
12:58 PM,96.4,59.7,29,29.87,10.0,South,20.7,27.6,N/A,,Clear,190,2013-06-10 17:58:00
1:58 PM,98.6,59.0,27,29.85,10.0,South,19.6,26.5,N/A,,Partly Cloudy,190,2013-06-10 18:58:00
2:14 PM,98.6,60.8,29,29.91,-9999.0,SW,15.0,-,N/A,,Partly Cloudy,220,2013-06-10 19:14:00
2:38 PM,100.4,59.0,25,29.90,10.0,SSW,12.7,26.5,N/A,,Partly Cloudy,200,2013-06-10 19:38:00
2:58 PM,100.2,59.2,26,29.85,10.0,South,18.4,21.9,N/A,,Clear,190,2013-06-10 19:58:00
3:58 PM,100.8,57.4,24,29.84,10.0,SSW,15.0,24.2,N/A,,Clear,210,2013-06-10 20:58:00
4:58 PM,101.3,50.9,18,29.82,10.0,South,19.6,29.9,N/A,,Clear,190,2013-06-10 21:58:00
5:58 PM,100.6,48.0,17,29.81,10.0,South,18.4,24.2,N/A,,Clear,190,2013-06-10 22:58:00
6:58 PM,99.0,52.0,21,29.80,10.0,South,21.9,27.6,N/A,,Clear,190,2013-06-10 23:58:00
7:58 PM,96.1,52.2,23,29.80,10.0,South,17.3,-,N/A,,Clear,180,2013-06-11 00:58:00
8:58 PM,88.7,53.2,30,29.82,10.0,South,12.7,-,N/A,,Clear,170,2013-06-11 01:58:00
9:58 PM,81.9,55.8,41,29.84,10.0,SSE,9.2,-,N/A,,Clear,160,2013-06-11 02:58:00
10:58 PM,76.5,57.7,52,29.87,10.0,SSE,9.2,-,N/A,,Clear,160,2013-06-11 03:58:00
11:58 PM,79.5,56.8,46,29.88,10.0,South,12.7,-,N/A,,Clear,170,2013-06-11 04:58:00